Voltar ao catálogo

STARLINK-5151

AtivoComunicaçõesVLEO
NORAD 54066·PAYLOAD·🇺🇸 United States

Lançado Oct 20, 2022 de Cape Canaveral Space Force Station

Loading…

Próximas Passagens (próximas 24 horas)

TLE

AtualizadoSource: CelesTrak SupGP

Época: Sep 14, 2026, 20:53 UTC

1 54066C 22136R   26257.87062500  .00372680  00000+0  17618-1 0  2571
2 54066  53.1592 214.4197 0001435  93.8898 301.9468 15.18693947    19

Acompanhe STARLINK-5151 em tempo real com AllMySat

Download on the App Store